This demonstration page uses our WeatherBlox Daily Observations layout. Learn more.

Left ArrowRight Arrow

41.86663, -103.66717

Hourly Observations for December 8, 2021

Temp ( °F °C ) Dew Point ( °F °C ) Humidity (%) Winds ( mph kmh ) Pressure ( in mb ) Visibility ( mi km ) Precip ( " mm )
12:53 am 00:53 Clear 23 -5 16 -8.9 74 74 NNW 5 7 29.93 1014 10 16 N/A
1:53 am 01:53 Clear 18 -7.8 13 -10.6 81 81 N 6 9 29.92 1013 10 16 N/A
2:53 am 02:53 Clear 18 -7.8 13 -10.6 81 81 N N/A 29.91 1013 10 16 N/A
3:53 am 03:53 Clear 20 -6.7 14 -10 78 78 N 6 9 29.89 1012 10 16 N/A
4:53 am 04:53 Clear 19 -7.2 13 -10.6 77 77 VRB 5 7 29.91 1013 10 16 N/A
5:53 am 05:53 Clear 19 -7.2 13 -10.6 77 77 N N/A 29.91 1013 10 16 N/A
6:53 am 06:53 Clear 18 -7.8 12 -11.1 77 77 E 7 11 29.91 1013 10 16 N/A
7:53 am 07:53 Sunny 23 -5 17 -8.3 78 78 ESE 9 15 29.88 1012 10 16 N/A
8:53 am 08:53 Sunny 32 undefined 21 -6.1 64 64 ESE 9 15 29.83 1010 10 16 N/A
9:53 am 09:53 Sunny 48 8.9 22 -5.6 36 36 S 10 17 29.76 1008 10 16 N/A
10:53 am 10:53 Sunny 55 12.8 20 -6.7 25 25 SSW 18 30 29.71 1006 10 16 N/A
11:53 am 11:53 Sunny 57 13.9 19 -7.2 23 23 SSW 15 24 29.65 1004 10 16 N/A
12:53 pm 12:53 Sunny 56 13.3 19 -7.2 24 24 SSW 14 22 29.60 1003 10 16 N/A
1:53 pm 13:53 Sunny 57 13.9 18 -7.8 22 22 SSW 14 22 29.58 1002 10 16 N/A
2:53 pm 14:53 Sunny 55 12.8 19 -7.2 24 24 SSW 7 11 29.56 1001 10 16 N/A
3:53 pm 15:53 Sunny 51 10.6 19 -7.2 28 28 SW 7 11 29.57 1001 10 16 N/A
4:53 pm 16:53 Clear 51 10.6 17 -8.3 26 26 W 9 15 29.57 1002 10 16 N/A
5:53 pm 17:53 Clear 51 10.6 18 -7.8 27 27 WNW 13 20 29.57 1001 10 16 N/A
6:53 pm 18:53 Clear 52 11.1 20 -6.7 28 28 W 16 26 29.54 1000 10 16 N/A
7:53 pm 19:53 Clear 52 11.1 23 -5 32 32 W 17 28 29.49 999 10 16 N/A
8:53 pm 20:53 Clear 51 10.6 23 -5 33 33 WNW 13 20 29.46 998 10 16 N/A
9:53 pm 21:53 Clear 52 11.1 23 -5 32 32 W 23 37 29.43 997 10 16 N/A
10:53 pm 22:53 Clear 52 11.1 24 -4.4 34 34 W 22 35 29.42 996 10 16 N/A
11:53 pm 23:53 Clear 51 10.6 26 -3.3 38 38 W 25 41 29.42 996 10 16 N/A

Powered by AerisWeather